Chugiak, AK

9:08 AM AKST on December 02, 2016 (GMT -0900)
Birchwood

Weather History for PABV - December, 2012

Change the Weather History Date:

Sunday, December 30, 2012

  Actual Average Record
Temperature  
Mean Temperature 42 °F -  
Max Temperature 50 °F 17 °F 50 °F (2012)
Min Temperature 33 °F 5 °F -16 °F (2008)
Degree Days  
Heating Degree Days 24    
Moisture  
Dew Point 33 °F    
Average Humidity 75    
Maximum Humidity 93    
Minimum Humidity 43    
Precipitation  
Precipitation 0.00 in - - ()
Sea Level Pressure  
Sea Level Pressure 29.16 in    
Wind  
Wind Speed 7 mph (ENE)    
Max Wind Speed 23 mph    
Max Gust Speed 31 mph    
Visibility 10 miles    
Events      
Averages and records for this station are not official NWS values.
T = Trace of Precipitation, MM = Missing Value Source: NWS Daily Summary

Daily Weather History Graph

Daily Weather History Graph

Search for Another Location

Airport or City:

Trip Planner

Search our weather history database for the weather conditions in past years. The results will help you decide how hot, cold, wet, or windy it might be!

Date:

Astronomy

Dec. 30, 2012 Rise Set
Actual Time 10:15 AM AKST 3:46 PM AKST
Civil Twilight 9:13 AM AKST 4:49 PM AKST
Nautical Twilight 8:13 AM AKST 5:48 PM AKST
Astronomical Twilight 7:19 AM AKST 6:42 PM AKST
Moon 7:26 PM AKST (12/30) 10:36 AM AKST (12/30)
Length of Visible Light 7h 36m
Length of Day
5h 31m
Waning Gibbous, 94% of the Moon is Illuminated
Dec 30
Waning Gibbous
Jan 4
Last Quarter
Jan 11
New
Jan 18
First Quarter
Jan 26
Full

Hourly Weather History & Observations

Time (AKST) Temp. Windchill Dew Point Humidity Pressure Visibility Wind Dir Wind Speed Gust Speed Precip Events Conditions
12:16 AM 37.4 °F 32.1 °F 30.2 °F 75% 29.25 in 10.0 mi South 6.9 mph - N/A   Overcast
12:36 AM 37.4 °F - 30.2 °F 75% 29.24 in 10.0 mi Calm Calm - N/A   Overcast
12:56 AM 35.6 °F 29.2 °F 30.2 °F 81% 29.25 in 10.0 mi SSW 8.1 mph - N/A   Overcast
1:16 AM 37.4 °F 32.8 °F 30.2 °F 75% 29.25 in 10.0 mi SW 5.8 mph - N/A   Overcast
1:36 AM 35.6 °F - 30.2 °F 81% 29.22 in 10.0 mi Calm Calm - N/A   Overcast
1:56 AM 33.8 °F 25.8 °F 30.2 °F 87% 29.21 in 10.0 mi SW 10.4 mph - N/A   Overcast
2:16 AM 37.4 °F 34.9 °F 33.8 °F 87% 29.18 in 10.0 mi SSW 3.5 mph - N/A   Mostly Cloudy
2:36 AM 37.4 °F 32.8 °F 33.8 °F 87% 29.19 in 10.0 mi SW 5.8 mph - N/A   Partly Cloudy
3:16 AM 37.4 °F 33.8 °F 33.8 °F 87% 29.16 in 10.0 mi SSE 4.6 mph - N/A   Scattered Clouds
3:36 AM 39.2 °F 37.0 °F 33.8 °F 81% 29.14 in 10.0 mi ENE 3.5 mph - N/A   Scattered Clouds
3:56 AM 41.0 °F 33.1 °F 33.8 °F 76% 29.11 in 10.0 mi NNE 15.0 mph 20.7 mph N/A   Partly Cloudy
4:16 AM 39.2 °F - 33.8 °F 81% 29.11 in 10.0 mi Calm Calm - N/A   Partly Cloudy
4:36 AM 37.4 °F 32.8 °F 33.8 °F 87% 29.10 in 10.0 mi SE 5.8 mph - N/A   Scattered Clouds
4:56 AM 39.2 °F 37.0 °F 33.8 °F 81% 29.10 in 10.0 mi SSE 3.5 mph - N/A   Partly Cloudy
5:16 AM 39.2 °F 33.0 °F 32.0 °F 75% 29.07 in 10.0 mi ESE 9.2 mph - N/A   Clear
5:36 AM 50.0 °F - 28.4 °F 43% 29.04 in 10.0 mi SE 18.4 mph 31.1 mph N/A   Clear
5:56 AM 50.0 °F - 28.4 °F 43% 29.04 in 10.0 mi ESE 17.3 mph 29.9 mph N/A   Clear
6:16 AM 50.0 °F - 30.2 °F 47% 29.07 in 10.0 mi East 13.8 mph 23.0 mph N/A   Partly Cloudy
6:36 AM 48.2 °F - 32.0 °F 54% 29.09 in 10.0 mi East 12.7 mph 20.7 mph N/A   Mostly Cloudy
6:56 AM 46.4 °F 39.8 °F 33.8 °F 62% 29.09 in 10.0 mi ENE 16.1 mph 23.0 mph N/A   Overcast
7:16 AM 46.4 °F 40.1 °F 35.6 °F 66% 29.07 in 10.0 mi East 15.0 mph 23.0 mph N/A   Overcast
7:36 AM 44.6 °F 37.4 °F 37.4 °F 76% 29.05 in 10.0 mi ENE 16.1 mph 21.9 mph N/A   Overcast
7:56 AM 42.8 °F 35.1 °F 37.4 °F 81% 29.05 in 10.0 mi NE 16.1 mph 28.8 mph N/A   Overcast
8:16 AM 42.8 °F 34.0 °F 37.4 °F 81% 29.04 in 10.0 mi NE 20.7 mph 27.6 mph N/A   Overcast
8:36 AM 44.6 °F 35.9 °F 37.4 °F 76% 29.02 in 10.0 mi NE 23.0 mph 29.9 mph N/A   Overcast
8:56 AM 44.6 °F 36.9 °F 37.4 °F 76% 29.02 in 10.0 mi ENE 18.4 mph 29.9 mph N/A   Overcast
9:16 AM 44.6 °F 39.2 °F 35.6 °F 71% 29.03 in 10.0 mi East 10.4 mph 29.9 mph N/A   Overcast
9:36 AM 42.8 °F 36.6 °F 37.4 °F 81% 29.04 in 10.0 mi NE 11.5 mph 18.4 mph N/A   Overcast
9:56 AM 42.8 °F 34.8 °F 37.4 °F 81% 29.05 in 10.0 mi NE 17.3 mph 21.9 mph N/A   Overcast
10:16 AM 42.8 °F 36.2 °F 37.4 °F 81% 29.05 in 10.0 mi NE 12.7 mph - N/A   Overcast
10:36 AM 41.0 °F 33.5 °F 37.4 °F 87% 29.05 in 10.0 mi NNE 13.8 mph 18.4 mph N/A   Overcast
10:56 AM 41.0 °F 33.9 °F 35.6 °F 81% 29.05 in 10.0 mi NE 12.7 mph 17.3 mph N/A   Overcast
11:16 AM 42.8 °F 37.0 °F 35.6 °F 76% 29.04 in 10.0 mi NE 10.4 mph 23.0 mph N/A   Overcast
11:36 AM 44.6 °F 38.8 °F 33.8 °F 66% 29.05 in 10.0 mi NNE 11.5 mph 23.0 mph N/A   Overcast
11:56 AM 42.8 °F 38.6 °F 35.6 °F 76% 29.09 in 9.0 mi ESE 6.9 mph - N/A   Overcast
12:16 PM 42.8 °F 38.0 °F 35.6 °F 76% 29.07 in 10.0 mi ENE 8.1 mph - N/A   Overcast
12:36 PM 42.8 °F 38.0 °F 35.6 °F 76% 29.07 in 10.0 mi North 8.1 mph - N/A   Overcast
12:56 PM 42.8 °F 38.6 °F 33.8 °F 70% 29.08 in 10.0 mi NE 6.9 mph - N/A   Overcast
1:16 PM 42.8 °F 40.1 °F 33.8 °F 70% 29.09 in 10.0 mi East 4.6 mph - N/A   Overcast
1:36 PM 42.8 °F 40.1 °F 33.8 °F 70% 29.10 in 10.0 mi WSW 4.6 mph - N/A   Overcast
1:56 PM 41.0 °F 39.0 °F 33.8 °F 76% 29.11 in 10.0 mi NE 3.5 mph - N/A   Overcast
2:16 PM 42.8 °F - 33.8 °F 70% 29.12 in 10.0 mi Calm Calm - N/A   Overcast
2:36 PM 39.2 °F 37.0 °F 35.6 °F 87% 29.12 in 10.0 mi SSE 3.5 mph - N/A   Overcast
2:56 PM 41.0 °F - 35.6 °F 81% 29.13 in 10.0 mi Calm Calm - N/A   Overcast
3:16 PM 39.2 °F - 35.6 °F 87% 29.13 in 10.0 mi Calm Calm - N/A   Overcast
3:36 PM 39.2 °F 35.9 °F 35.6 °F 87% 29.14 in 10.0 mi ESE 4.6 mph - N/A   Overcast
3:56 PM 39.2 °F 37.0 °F 33.8 °F 81% 29.14 in 10.0 mi NE 3.5 mph - N/A   Overcast
4:16 PM 39.2 °F 35.9 °F 33.8 °F 81% 29.14 in 10.0 mi NNE 4.6 mph - N/A   Overcast
4:36 PM 41.0 °F 35.8 °F 33.8 °F 76% 29.15 in 10.0 mi NNE 8.1 mph - N/A   Overcast
4:56 PM 39.2 °F 35.9 °F 33.8 °F 81% 29.15 in 10.0 mi North 4.6 mph - N/A   Overcast
5:16 PM 39.2 °F 35.9 °F 33.8 °F 81% 29.17 in 10.0 mi SE 4.6 mph - N/A   Overcast
5:36 PM 37.4 °F 32.8 °F 33.8 °F 87% 29.18 in 10.0 mi SSE 5.8 mph - N/A   Overcast
5:56 PM 37.4 °F 34.9 °F 35.6 °F 93% 29.18 in 10.0 mi SE 3.5 mph - N/A   Overcast
6:16 PM 37.4 °F - 33.8 °F 87% 29.19 in 10.0 mi Calm Calm - N/A   Overcast
6:36 PM 39.2 °F 37.0 °F 32.0 °F 75% 29.20 in 10.0 mi NNW 3.5 mph - N/A   Overcast
6:56 PM 39.2 °F - 32.0 °F 75% 29.20 in 10.0 mi Calm Calm - N/A   Overcast
7:16 PM 39.2 °F 37.0 °F 32.0 °F 75% 29.21 in 10.0 mi WNW 3.5 mph - N/A   Overcast
7:36 PM 41.0 °F - 30.2 °F 65% 29.23 in 10.0 mi Calm Calm - N/A   Mostly Cloudy
7:56 PM 41.0 °F 35.2 °F 30.2 °F 65% 29.23 in 10.0 mi West 9.2 mph 16.1 mph N/A   Overcast
8:16 PM 39.2 °F 34.2 °F 30.2 °F 70% 29.25 in 10.0 mi NW 6.9 mph - N/A   Mostly Cloudy
8:36 PM 39.2 °F 37.0 °F 30.2 °F 70% 29.26 in 10.0 mi ENE 3.5 mph - N/A   Overcast
8:56 PM 41.0 °F 37.1 °F 30.2 °F 65% 29.28 in 10.0 mi ENE 5.8 mph - N/A   Overcast
9:16 PM 42.8 °F - 30.2 °F 61% 29.30 in 10.0 mi Calm Calm - N/A   Overcast
9:36 PM 42.8 °F 41.1 °F 28.4 °F 57% 29.30 in 10.0 mi North 3.5 mph - N/A   Overcast
9:56 PM 42.8 °F - 30.2 °F 61% 29.32 in 10.0 mi Calm Calm - N/A   Overcast
10:16 PM 39.2 °F 35.9 °F 30.2 °F 70% 29.34 in 10.0 mi SSE 4.6 mph - N/A   Mostly Cloudy
10:36 PM 39.2 °F - 30.2 °F 70% 29.35 in 10.0 mi Calm Calm - N/A   Scattered Clouds
10:56 PM 39.2 °F 35.0 °F 30.2 °F 70% 29.37 in 10.0 mi WSW 5.8 mph - N/A   Scattered Clouds
11:16 PM 37.4 °F - 30.2 °F 75% 29.38 in 10.0 mi Calm Calm - N/A   Scattered Clouds
11:36 PM 37.4 °F 33.8 °F 30.2 °F 75% 29.39 in 10.0 mi South 4.6 mph - N/A   Partly Cloudy
11:56 PM 39.2 °F - 30.2 °F 70% 29.41 in 10.0 mi Calm Calm - N/A   Scattered Clouds